SCP
-0 -0 -0 -0 0 0 0 0 0 0 0 0 0 0 0 0 0 0 0 0 0 0 0 0 0 0 0 0 0 0 0 0 0 0 0 0 0 0 0 0 0 0 0
-0 -0 -0 -0 -0 0 -0 -0 0 0 0 0 0 0 0 0 0 0 0 0 0 0 0 0 0 0 0 0 0 0 0 0 0 0 0 0 0 0 0 0 0 0 0
-0 -0 -0 -0 0 0 -0 0 0 0 0 0 0 0 0 0 0 0 0 0 0 0 0 0 0 0 0 0 0 0 -0 0 0 0 0 0 0 0 0 0 0 0 0
-0 -0 -0 0 -0 0 -0 0 -0 -0 0 0 0 0 0 0 0 0 0 0 0 0 0 0 0 0 0 0 0 0 -0 0 0 0 0 0 0 0 0 0 0 0 0
0 0 0 0 0 0 -0 -0 -0 -0 -0 0 0 0 0 0 0 0 0 0 0 0 0 0 0 0 0 0 0 0 0 -0 0 0 0 0 0 0 0 0 0 0 0
0 0 0 0 0 0 -0 -0 -0 -0 -0 0 0 0 0 0 0 0 0 0 0 0 0 0 0 0 0 -0 -0 -0 0 0 0 0 0 0 0 0 0 0 0 -0 0
0 0 0 0 0 0 -0 -0 -0 -0 -0 -0 0 0 -0 0 0 0 0 0 0 0 0 0 0 0 0 0 -0 -0 -0 0 0 0 0 0 0 0 0 0 0 0 0
0 0 0 0 0 0 0 -0 -0 -0 -0 -0 -0 -0 -0 -0 0 0 0 0 0 0 0 0 0 0 0 0 0 0 -0 0 0 0 0 0 0 0 0 0 0 0 0
0 0 0 0 0 0 0 0 -0 -0 -0 -0 -0 -0 -0 -0 0 0 0 0 0 0 0 0 0 0 0 0 0 0 -0 -0 0 0 0 0 0 0 0 0 0 0 0
0 0 0 0 0 0 0 0 0 -0 -0 -0 -0 -0 -0 -0 -0 0 0 0 0 0 0 0 0 0 0 0 0 0 0 -0 -0 0 0 0 0 0 0 0 0 0 0
0 0 0 0 0 0 0 0 0 -0 -0 -0 -0 -0 -0 -0 -0 0 0 0 0 0 0 0 0 0 0 0 0 0 0 0 -0 0 0 0 0 0 0 0 0 0 0
0 0 0 0 0 0 0 0 0 -0 -0 -0 -0 -0 -0 -0 -0 0 0 0 0 0 0 0 0 0 0 0 0 0 0 0 0 -0 -0 0 0 0 0 0 0 0 0
0 0 0 0 0 0 0 0 0 0 -0 -0 -0 -0 -0 0 0 -0 0 0 0 0 0 0 0 0 0 0 0 0 0 0 0 0 -0 0 0 0 0 0 0 0 0
0 0 0 0 0 0 0 0 0 0 0 -0 -0 -0 -0 0 0 0 0 0 0 0 0 0 0 0 0 0 0 0 0 0 0 0 0 0 0 0 0 0 0 0 0
0 0 0 0 0 0 0 0 0 0 -0 -0 -0 -0 0 0 0 0 0 0 0 0 0 0 0 0 0 0 0 0 0 0 0 0 0 0 0 0 0 0 0 0 0
0 0 0 0 0 0 0 0 0 0 0 0 0 0 0 0 0 0 0 0 0 0 0 0 0 0 0 0 0 0 0 0 0 0 0 0 0 0 0 0 0 0 0
0 0 0 0 0 0 0 0 0 0 0 0 0 0 0 0 0 0 0 0 0 0 0 0 0 0 0 0 0 0 0 0 0 0 0 0 0 0 0 0 0 0 0
0 0 0 0 0 0 0 0 0 0 0 0 0 0 0 0 0 0 0 0 0 0 0 0 0 0 0 0 0 0 0 0 0 0 0 0 0 0 0 0 0 0 0
0 0 0 0 0 0 0 0 0 0 0 0 0 0 0 0 0 0 0 0 0 0 0 0 0 0 0 0 0 0 0 0 0 0 0 0 0 0 0 0 0 0 0
0 0 0 0 0 0 0 0 0 0 0 0 0 0 0 0 0 0 0 0 0 0 0 0 0 0 0 0 0 0 0 0 0 0 0 0 0 0 0 0 0 0 0
0 0 0 0 0 0 0 0 0 0 0 0 -0 -0 0 0 0 0 0 0 0 0 0 0 0 0 0 0 0 0 0 0 0 0 0 0 0 0 0 0 0 0 0
0 0 0 0 0 0 0 0 0 0 0 0 0 -0 0 0 0 0 0 0 0 0 0 0 0 0 0 0 0 0 0 0 0 0 0 0 0 0 0 0 0 0 0
0 0 0 0 0 0 0 0 0 0 0 0 0 0 0 0 0 0 0 0 0 0 0 0 0 0 0 0 0 0 0 0 0 0 0 0 0 0 0 0 0 0 0
0 0 0 0 0 0 0 0 0 0 0 0 0 0 -0 0 0 0 0 0 0 0 0 0 0 0 0 0 0 0 0 0 0 0 0 0 0 0 0 0 0 0 0
0 0 0 0 0 0 0 0 0 0 0 0 -0 0 0 0 0 0 0 0 0 0 0 0 0 0 0 0 0 0 0 0 0 0 0 0 0 0 0 0 0 0 0
0 0 0 0 0 0 0 0 0 0 0 0 0 0 0 0 0 0 0 0 0 0 0 0 0 0 0 0 0 0 0 0 0 0 0 0 0 0 0 0 0 0 0
Wind_Speed_500mb
20 21 27 31 33 35 40 41 46 46 49 53 51 50 54 56 53 52 51 51 50 48 47 48 44 40 36 36 34 44 38 21 22 39 41 46 49 51 57 60 62 69 71
16 19 23 28 31 33 38 40 46 48 50 50 51 51 51 53 53 51 50 50 50 51 51 50 51 46 42 39 34 43 42 22 37 55 51 51 51 49 56 58 59 63 63
13 15 21 26 27 32 36 41 44 43 45 44 45 49 52 55 53 52 49 47 47 52 51 50 54 52 50 45 42 36 34 10 41 53 55 54 53 49 51 53 53 54 55
13 13 19 22 25 29 36 39 39 40 41 43 47 48 53 54 55 52 50 46 49 49 50 50 53 53 51 51 45 37 23 12 28 39 47 48 48 46 46 52 52 45 43
14 12 17 20 24 28 34 36 37 38 42 43 45 50 52 58 55 54 51 49 49 50 51 51 49 45 43 44 48 42 29 12 9 23 31 37 39 38 38 39 44 43 41
16 14 17 20 24 27 32 32 35 38 41 44 47 50 53 56 53 52 51 48 44 48 53 54 52 43 43 41 39 43 36 24 9 11 21 28 26 23 26 28 33 34 28
20 18 19 24 26 27 28 30 33 37 41 48 50 52 53 53 51 53 51 46 43 44 49 55 56 51 45 44 41 37 39 33 23 9 13 23 23 18 18 20 17 15 20
25 23 22 27 27 26 30 28 29 36 42 47 51 50 53 48 56 53 52 48 47 46 49 51 53 54 52 47 41 38 36 39 37 28 20 16 12 13 12 9 10 12 16
30 27 26 30 29 27 30 31 27 32 40 46 49 49 51 48 53 51 51 48 47 46 49 53 56 54 51 49 43 41 36 36 32 25 22 17 16 21 19 11 11 9 10
35 31 30 33 33 27 30 30 30 29 36 42 45 46 48 46 50 47 45 45 44 47 48 51 54 54 51 49 47 44 40 38 32 27 22 18 17 15 12 9 10 8 7
40 35 35 35 34 31 30 28 28 28 31 37 42 43 43 45 47 47 46 44 42 42 44 47 49 48 47 46 45 48 45 35 31 28 27 22 17 14 11 10 9 8 8
45 40 41 37 36 31 29 30 27 26 29 35 38 39 39 40 42 44 44 43 39 38 39 41 41 41 41 40 43 43 41 36 32 29 28 31 29 26 23 18 13 11 7
52 45 45 42 38 34 28 28 26 25 25 30 33 33 34 34 36 38 40 40 40 36 34 33 31 34 36 37 39 36 34 38 35 33 35 34 32 31 27 25 23 21 18
56 51 50 45 41 35 31 26 23 24 21 26 28 29 28 27 31 34 35 36 35 33 32 30 31 32 34 34 31 32 31 31 31 32 31 29 27 24 22 22 20 19 15
60 55 56 50 44 40 34 27 23 21 18 23 23 25 23 23 28 29 28 30 31 31 30 21 20 24 28 31 32 31 29 24 21 24 22 20 19 19 19 20 19 18 15
67 62 62 57 51 43 37 32 26 20 17 19 20 21 22 23 24 24 24 24 29 29 26 23 26 28 30 31 30 28 26 24 20 16 15 15 14 15 16 17 18 17 17
70 68 67 60 54 48 43 34 29 24 18 17 16 17 19 20 22 25 25 24 27 30 24 24 25 26 28 28 27 25 24 23 22 16 12 11 10 10 11 11 12 13 14
72 66 67 64 57 51 44 37 31 24 18 16 14 13 15 17 19 22 23 24 21 21 23 23 23 23 23 24 23 23 22 21 19 17 14 10 8 8 9 9 10 12 13
77 72 69 65 59 53 47 41 34 27 22 18 13 11 12 13 15 18 20 20 19 20 22 21 22 21 21 21 22 21 20 19 19 18 17 15 12 10 10 11 12 13 14
81 73 71 69 65 60 53 46 39 32 25 20 14 11 10 11 13 16 16 15 18 19 19 20 21 19 19 20 20 20 20 20 19 19 18 17 15 12 11 11 13 15 16
87 80 76 73 69 63 57 50 42 34 27 23 17 12 10 10 10 13 13 13 15 16 16 17 18 18 19 18 19 19 19 20 20 20 19 18 17 15 14 13 12 13 14
95 89 83 78 73 68 61 53 46 38 33 28 22 17 13 11 9 8 9 10 12 12 12 13 14 15 16 17 17 17 17 18 20 21 21 20 19 18 16 14 14 14 14
98 92 86 81 76 72 67 60 53 45 38 34 28 23 18 15 11 8 5 6 7 9 9 9 10 11 12 13 14 15 16 17 17 18 20 21 20 20 19 18 16 15 14
100 94 89 86 83 78 72 65 58 51 43 40 34 28 23 19 16 11 7 3 1 2 4 5 6 7 7 8 9 10 11 13 13 15 16 17 18 18 17 17 17 17 17
104 100 97 92 88 83 77 70 64 58 51 47 41 35 30 25 20 16 11 7 4 2 2 2 1 3 4 3 3 4 6 8 10 12 13 15 17 18 17 16 16 17 17
111 104 98 94 90 87 82 77 72 65 59 53 49 43 36 31 26 22 17 13 11 8 6 5 6 6 7 7 7 7 7 7 9 10 12 13 14 16 16 16 15 16 16
Wind_Direction_500mb
68 57 53 51 47 47 47 43 41 36 33 31 31 30 28 26 23 22 19 14 12 12 13 16 16 11 5 356 353 353 351 321 212 151 135 127 117 114 113 111 111 106 102
75 60 57 58 55 51 48 44 42 37 37 31 31 32 32 30 27 24 20 15 11 12 14 14 17 16 22 12 12 2 357 334 177 146 137 128 124 119 116 111 107 104 105
86 68 64 65 58 54 53 48 46 41 39 32 30 30 32 31 28 27 25 21 20 23 21 20 20 16 22 21 19 17 14 129 148 141 131 130 128 127 120 115 110 107 104
96 74 72 69 61 60 59 55 51 44 40 36 33 32 34 33 32 29 28 28 32 30 31 31 28 24 22 19 19 30 30 108 141 139 136 134 131 128 121 116 111 107 114
119 96 89 76 69 68 67 60 53 47 43 39 36 33 35 34 28 30 29 31 36 36 36 35 27 29 33 30 19 15 36 48 164 161 142 135 132 133 126 124 120 126 121
141 122 106 91 83 75 73 65 58 52 47 43 38 35 38 34 33 33 32 31 35 35 32 30 27 30 31 37 38 28 19 41 59 187 168 154 143 130 128 129 128 128 123
157 141 126 108 96 88 78 69 64 57 50 46 41 39 42 38 38 33 32 31 32 32 28 25 29 31 36 33 31 43 44 39 53 76 153 165 156 151 146 135 129 135 142
165 152 137 120 108 100 89 76 67 61 54 49 44 42 45 40 42 37 35 36 38 34 30 28 32 39 38 34 33 37 44 59 60 61 85 127 145 153 134 131 128 119 117
172 160 147 129 118 110 98 86 72 63 58 52 47 43 47 46 44 43 40 38 39 39 36 35 36 40 41 41 40 43 43 45 53 74 87 92 116 111 106 108 102 97 118
175 166 152 136 126 119 105 92 80 68 62 56 51 46 46 49 44 45 46 44 40 39 38 37 40 39 37 38 39 44 48 47 47 53 66 71 86 98 105 123 131 118 114
176 169 156 145 135 127 114 101 87 75 66 61 54 48 45 48 46 41 42 39 37 36 39 39 40 38 39 39 40 43 43 47 53 54 62 68 80 89 92 99 112 102 100
177 172 161 152 142 135 125 112 99 84 73 66 59 53 47 48 50 44 40 36 36 34 39 41 40 38 39 42 45 45 45 52 61 64 71 74 76 78 81 86 93 98 80
180 175 163 158 151 143 136 122 112 98 84 75 67 61 54 51 51 47 42 35 34 35 39 43 42 42 41 42 46 49 51 55 63 74 74 75 75 75 73 78 77 79 80
180 176 167 164 157 152 141 134 123 107 97 86 75 67 60 56 54 49 43 37 31 31 35 35 35 35 40 46 47 49 54 60 61 69 71 72 72 73 69 65 64 64 63
182 179 172 169 165 158 151 146 135 121 111 96 83 73 62 53 51 49 42 40 36 31 32 30 43 47 47 49 48 49 48 51 56 62 65 66 64 61 61 60 59 53 47
183 183 177 173 169 166 161 155 147 140 123 99 83 71 62 51 49 49 44 37 37 33 25 27 39 44 48 50 51 49 46 46 46 45 50 52 52 55 54 51 47 44 39
191 185 179 177 176 172 168 166 161 156 142 114 94 74 63 51 45 46 45 41 38 33 22 30 35 41 44 44 44 46 47 45 42 37 31 27 30 34 33 33 34 32 28
191 190 185 179 179 176 173 172 169 169 158 137 116 90 72 59 47 43 43 41 33 38 31 32 35 40 42 44 43 42 43 43 39 35 29 22 10 358 355 358 5 7 8
191 191 188 184 181 180 178 177 178 178 171 159 140 108 83 69 59 50 44 41 36 40 43 36 36 37 39 41 40 40 39 41 41 37 32 24 9 347 333 330 332 337 342
192 192 189 187 184 183 183 184 183 182 176 169 150 125 100 80 68 59 50 41 39 35 40 42 36 34 35 36 36 32 30 32 38 39 34 27 20 9 347 327 319 319 322
192 191 193 191 190 188 187 186 185 183 178 170 159 150 127 104 78 64 55 47 44 41 37 45 42 39 37 36 37 36 28 25 28 31 31 29 24 17 9 357 344 333 328
195 194 192 194 192 191 190 190 188 186 184 176 171 171 156 137 118 86 62 51 48 48 42 43 44 45 48 44 42 41 41 32 26 24 22 20 19 18 16 11 5 357 351
197 196 195 195 195 195 194 192 191 190 186 182 177 178 171 163 152 129 95 60 49 43 45 43 45 47 50 50 46 41 36 36 31 25 18 12 11 13 13 13 13 11 7
200 199 199 198 198 198 197 195 194 191 189 188 180 183 180 181 174 165 155 137 84 53 45 35 29 29 41 44 40 39 35 27 24 23 16 9 6 7 10 12 10 9 8
202 202 202 203 202 201 200 198 197 195 191 192 182 186 188 187 186 181 179 181 187 221 247 260 306 326 331 343 1 5 9 6 5 7 7 5 359 356 357 360 2 4 5
205 205 205 206 206 206 203 201 199 198 194 196 188 189 193 193 193 192 193 193 195 206 225 241 247 257 266 276 287 296 308 320 328 336 342 345 348 348 347 350 354 356 355
Wind_Speed_850mb
20 21 27 31 33 35 40 41 46 46 49 53 51 50 54 56 53 52 51 51 50 48 47 48 44 40 36 36 34 44 38 21 22 39 41 46 49 51 57 60 62 69 71
16 19 23 28 31 33 38 40 46 48 50 50 51 51 51 53 53 51 50 50 50 51 51 50 51 46 42 39 34 43 42 22 37 55 51 51 51 49 56 58 59 63 63
13 15 21 26 27 32 36 41 44 43 45 44 45 49 52 55 53 52 49 47 47 52 51 50 54 52 50 45 42 36 34 10 41 53 55 54 53 49 51 53 53 54 55
13 13 19 22 25 29 36 39 39 40 41 43 47 48 53 54 55 52 50 46 49 49 50 50 53 53 51 51 45 37 23 12 28 39 47 48 48 46 46 52 52 45 43
14 12 17 20 24 28 34 36 37 38 42 43 45 50 52 58 55 54 51 49 49 50 51 51 49 45 43 44 48 42 29 12 9 23 31 37 39 38 38 39 44 43 41
16 14 17 20 24 27 32 32 35 38 41 44 47 50 53 56 53 52 51 48 44 48 53 54 52 43 43 41 39 43 36 24 9 11 21 28 26 23 26 28 33 34 28
20 18 19 24 26 27 28 30 33 37 41 48 50 52 53 53 51 53 51 46 43 44 49 55 56 51 45 44 41 37 39 33 23 9 13 23 23 18 18 20 17 15 20
25 23 22 27 27 26 30 28 29 36 42 47 51 50 53 48 56 53 52 48 47 46 49 51 53 54 52 47 41 38 36 39 37 28 20 16 12 13 12 9 10 12 16
30 27 26 30 29 27 30 31 27 32 40 46 49 49 51 48 53 51 51 48 47 46 49 53 56 54 51 49 43 41 36 36 32 25 22 17 16 21 19 11 11 9 10
35 31 30 33 33 27 30 30 30 29 36 42 45 46 48 46 50 47 45 45 44 47 48 51 54 54 51 49 47 44 40 38 32 27 22 18 17 15 12 9 10 8 7
40 35 35 35 34 31 30 28 28 28 31 37 42 43 43 45 47 47 46 44 42 42 44 47 49 48 47 46 45 48 45 35 31 28 27 22 17 14 11 10 9 8 8
45 40 41 37 36 31 29 30 27 26 29 35 38 39 39 40 42 44 44 43 39 38 39 41 41 41 41 40 43 43 41 36 32 29 28 31 29 26 23 18 13 11 7
52 45 45 42 38 34 28 28 26 25 25 30 33 33 34 34 36 38 40 40 40 36 34 33 31 34 36 37 39 36 34 38 35 33 35 34 32 31 27 25 23 21 18
56 51 50 45 41 35 31 26 23 24 21 26 28 29 28 27 31 34 35 36 35 33 32 30 31 32 34 34 31 32 31 31 31 32 31 29 27 24 22 22 20 19 15
60 55 56 50 44 40 34 27 23 21 18 23 23 25 23 23 28 29 28 30 31 31 30 21 20 24 28 31 32 31 29 24 21 24 22 20 19 19 19 20 19 18 15
67 62 62 57 51 43 37 32 26 20 17 19 20 21 22 23 24 24 24 24 29 29 26 23 26 28 30 31 30 28 26 24 20 16 15 15 14 15 16 17 18 17 17
70 68 67 60 54 48 43 34 29 24 18 17 16 17 19 20 22 25 25 24 27 30 24 24 25 26 28 28 27 25 24 23 22 16 12 11 10 10 11 11 12 13 14
72 66 67 64 57 51 44 37 31 24 18 16 14 13 15 17 19 22 23 24 21 21 23 23 23 23 23 24 23 23 22 21 19 17 14 10 8 8 9 9 10 12 13
77 72 69 65 59 53 47 41 34 27 22 18 13 11 12 13 15 18 20 20 19 20 22 21 22 21 21 21 22 21 20 19 19 18 17 15 12 10 10 11 12 13 14
81 73 71 69 65 60 53 46 39 32 25 20 14 11 10 11 13 16 16 15 18 19 19 20 21 19 19 20 20 20 20 20 19 19 18 17 15 12 11 11 13 15 16
87 80 76 73 69 63 57 50 42 34 27 23 17 12 10 10 10 13 13 13 15 16 16 17 18 18 19 18 19 19 19 20 20 20 19 18 17 15 14 13 12 13 14
95 89 83 78 73 68 61 53 46 38 33 28 22 17 13 11 9 8 9 10 12 12 12 13 14 15 16 17 17 17 17 18 20 21 21 20 19 18 16 14 14 14 14
98 92 86 81 76 72 67 60 53 45 38 34 28 23 18 15 11 8 5 6 7 9 9 9 10 11 12 13 14 15 16 17 17 18 20 21 20 20 19 18 16 15 14
100 94 89 86 83 78 72 65 58 51 43 40 34 28 23 19 16 11 7 3 1 2 4 5 6 7 7 8 9 10 11 13 13 15 16 17 18 18 17 17 17 17 17
104 100 97 92 88 83 77 70 64 58 51 47 41 35 30 25 20 16 11 7 4 2 2 2 1 3 4 3 3 4 6 8 10 12 13 15 17 18 17 16 16 17 17
111 104 98 94 90 87 82 77 72 65 59 53 49 43 36 31 26 22 17 13 11 8 6 5 6 6 7 7 7 7 7 7 9 10 12 13 14 16 16 16 15 16 16
Wind_Direction_850mb
68 57 53 51 47 47 47 43 41 36 33 31 31 30 28 26 23 22 19 14 12 12 13 16 16 11 5 356 353 353 351 321 212 151 135 127 117 114 113 111 111 106 102
75 60 57 58 55 51 48 44 42 37 37 31 31 32 32 30 27 24 20 15 11 12 14 14 17 16 22 12 12 2 357 334 177 146 137 128 124 119 116 111 107 104 105
86 68 64 65 58 54 53 48 46 41 39 32 30 30 32 31 28 27 25 21 20 23 21 20 20 16 22 21 19 17 14 129 148 141 131 130 128 127 120 115 110 107 104
96 74 72 69 61 60 59 55 51 44 40 36 33 32 34 33 32 29 28 28 32 30 31 31 28 24 22 19 19 30 30 108 141 139 136 134 131 128 121 116 111 107 114
119 96 89 76 69 68 67 60 53 47 43 39 36 33 35 34 28 30 29 31 36 36 36 35 27 29 33 30 19 15 36 48 164 161 142 135 132 133 126 124 120 126 121
141 122 106 91 83 75 73 65 58 52 47 43 38 35 38 34 33 33 32 31 35 35 32 30 27 30 31 37 38 28 19 41 59 187 168 154 143 130 128 129 128 128 123
157 141 126 108 96 88 78 69 64 57 50 46 41 39 42 38 38 33 32 31 32 32 28 25 29 31 36 33 31 43 44 39 53 76 153 165 156 151 146 135 129 135 142
165 152 137 120 108 100 89 76 67 61 54 49 44 42 45 40 42 37 35 36 38 34 30 28 32 39 38 34 33 37 44 59 60 61 85 127 145 153 134 131 128 119 117
172 160 147 129 118 110 98 86 72 63 58 52 47 43 47 46 44 43 40 38 39 39 36 35 36 40 41 41 40 43 43 45 53 74 87 92 116 111 106 108 102 97 118
175 166 152 136 126 119 105 92 80 68 62 56 51 46 46 49 44 45 46 44 40 39 38 37 40 39 37 38 39 44 48 47 47 53 66 71 86 98 105 123 131 118 114
176 169 156 145 135 127 114 101 87 75 66 61 54 48 45 48 46 41 42 39 37 36 39 39 40 38 39 39 40 43 43 47 53 54 62 68 80 89 92 99 112 102 100
177 172 161 152 142 135 125 112 99 84 73 66 59 53 47 48 50 44 40 36 36 34 39 41 40 38 39 42 45 45 45 52 61 64 71 74 76 78 81 86 93 98 80
180 175 163 158 151 143 136 122 112 98 84 75 67 61 54 51 51 47 42 35 34 35 39 43 42 42 41 42 46 49 51 55 63 74 74 75 75 75 73 78 77 79 80
180 176 167 164 157 152 141 134 123 107 97 86 75 67 60 56 54 49 43 37 31 31 35 35 35 35 40 46 47 49 54 60 61 69 71 72 72 73 69 65 64 64 63
182 179 172 169 165 158 151 146 135 121 111 96 83 73 62 53 51 49 42 40 36 31 32 30 43 47 47 49 48 49 48 51 56 62 65 66 64 61 61 60 59 53 47
183 183 177 173 169 166 161 155 147 140 123 99 83 71 62 51 49 49 44 37 37 33 25 27 39 44 48 50 51 49 46 46 46 45 50 52 52 55 54 51 47 44 39
191 185 179 177 176 172 168 166 161 156 142 114 94 74 63 51 45 46 45 41 38 33 22 30 35 41 44 44 44 46 47 45 42 37 31 27 30 34 33 33 34 32 28
191 190 185 179 179 176 173 172 169 169 158 137 116 90 72 59 47 43 43 41 33 38 31 32 35 40 42 44 43 42 43 43 39 35 29 22 10 358 355 358 5 7 8
191 191 188 184 181 180 178 177 178 178 171 159 140 108 83 69 59 50 44 41 36 40 43 36 36 37 39 41 40 40 39 41 41 37 32 24 9 347 333 330 332 337 342
192 192 189 187 184 183 183 184 183 182 176 169 150 125 100 80 68 59 50 41 39 35 40 42 36 34 35 36 36 32 30 32 38 39 34 27 20 9 347 327 319 319 322
192 191 193 191 190 188 187 186 185 183 178 170 159 150 127 104 78 64 55 47 44 41 37 45 42 39 37 36 37 36 28 25 28 31 31 29 24 17 9 357 344 333 328
195 194 192 194 192 191 190 190 188 186 184 176 171 171 156 137 118 86 62 51 48 48 42 43 44 45 48 44 42 41 41 32 26 24 22 20 19 18 16 11 5 357 351
197 196 195 195 195 195 194 192 191 190 186 182 177 178 171 163 152 129 95 60 49 43 45 43 45 47 50 50 46 41 36 36 31 25 18 12 11 13 13 13 13 11 7
200 199 199 198 198 198 197 195 194 191 189 188 180 183 180 181 174 165 155 137 84 53 45 35 29 29 41 44 40 39 35 27 24 23 16 9 6 7 10 12 10 9 8
202 202 202 203 202 201 200 198 197 195 191 192 182 186 188 187 186 181 179 181 187 221 247 260 306 326 331 343 1 5 9 6 5 7 7 5 359 356 357 360 2 4 5
205 205 205 206 206 206 203 201 199 198 194 196 188 189 193 193 193 192 193 193 195 206 225 241 247 257 266 276 287 296 308 320 328 336 342 345 348 348 347 350 354 356 355